Content
SEND FEEDBACK

Daily
Averages
Monthly
Summary
Turkmenistan

ANNAU, TURKMENISTAN


Home > Asia > Turkmenistan
Elevation: 807 feet     Latitude: 37 53N     Longitude: 058 31E

WEATHER
 
SELECT A DAY
Number of Records: 180,407;   Date Range: 3/15/97 - 9/30/14
 
SHARE

PRINT THIS DATA

[ ← Previous Day ]
WEATHER ALMANAC - AUGUST 8, 2014
[ Next Day → ]
[ °C ]   °F
Weather ElementAverageHighLow
Temperature94.9 °F105.8 °F (3:30 pm)78.8 °F (4:00 am)
Dewpoint32.8 °F43 °F (8:00 am)26.6 °F (1:30 pm)
Humidity10.7 %21 % (2:00 am)4 % (11:00 am)
Barometer29.70 in29.74 in (9:00 am)29.67 in (5:00 pm)
Wind Speed8.9 mph13.4 mph (7:00 pm)
Wind Gust22.4 mph (3:30 pm)
Weather ElementAverage
Visibility5.8 mi
Wind DirectionESE (114.7 °)

Weather ElementTotal
Precipitation---
Cooling Degree Days27.3 (Base 65)
Growing Degree Days42.3 (Base 50)
Averaged from 38 records on August 8, 2014
WEATHER CONDITIONS BREAKOUT
WIND DIRECTION BREAKOUT
WEATHER BY HOUR - AUGUST 8, 2014
[ °C ]   °F
Local TimeTemperatureDewpointHumidityBarometerVisibilityWind DirectionWind SpeedGust SpeedPrecipitationEventsConditions
12:00 AM89.6 °F28.4 °F11 %29.68 in6.2 miSSE (150°)8.9 mphClear
1:00 AM86.0 °F28.4 °F12 %29.68 in6.2 miSSE (150°)6.7 mphClear
2:00 AM84.0 °F38.0 °F11 %29.68 in6.0 miSSE (160°)6.7 mph
2:00 AM84.2 °F30.2 °F14 %29.68 in6.2 miSSE (160°)6.7 mphClear
3:00 AM82.4 °F37.4 °F20 %29.68 in2.2 miESE (110°)4.5 mphHaze
4:00 AM80.6 °F28.4 °F15 %29.68 in6.2 miSE (130°)8.9 mphClear
5:00 AM82.0 °F37.0 °F11 %29.68 in2.0 miSSE (150°)6.7 mph
5:00 AM80.6 °F26.6 °F14 %29.68 in5.0 miSSE (150°)6.7 mphClear
6:00 AM80.6 °F30.2 °F16 %29.68 in5.0 miSouth (170°)4.5 mphClear
7:00 AM78.8 °F35.6 °F21 %29.71 in6.2 miNNE (30°)4.5 mphClear
8:00 AM82.4 °F37.4 °F20 %29.71 in5.0 miVariable2.2 mphClear
8:00 AM80.0 °F43.0 °F17 %29.73 in6.0 miSouth (180°)2.2 mph
9:00 AM91.4 °F35.6 °F14 %29.74 in5.6 miEast (90°)6.7 mphClear
10:00 AM93.2 °F35.6 °F13 %29.74 in6.2 miEast (90°)8.9 mphClear
11:00 AM98.0 °F35.0 °F5 %29.72 in6.0 miEast (80°)6.7 mph
11:00 AM98.6 °F33.8 °F10 %29.74 in6.2 miEast (90°)8.9 mphClear
12:00 PM102.2 °F30.2 °F8 %29.74 in6.2 miEast (80°)8.9 mphClear
1:00 PM104.0 °F30.2 °F8 %29.74 in6.2 miENE (70°)13.4 mphClear
1:30 PM104.0 °F30.2 °F8 %29.74 in6.2 miEast (90°)13.4 mphClear
2:00 PM104.0 °F30.2 °F8 %29.71 in6.2 miEast (80°)13.4 mphClear
2:00 PM104.0 °F29.0 °F4 %29.70 in6.0 miENE (60°)13.4 mph
2:30 PM105.8 °F30.2 °F7 %29.71 in6.2 miEast (100°)11.2 mphClear
3:00 PM105.8 °F28.4 °F7 %29.71 in6.2 miEast (100°)11.2 mphClear
3:30 PM105.8 °F30.2 °F7 %29.71 in6.2 miEast (100°)11.2 mph22.4 mphClear
4:00 PM105.8 °F32.0 °F8 %29.68 in6.2 miESE (120°)11.2 mphClear
4:30 PM105.8 °F30.2 °F7 %29.68 in6.2 miESE (110°)13.4 mphClear
5:00 PM105.0 °F29.0 °F4 %29.67 in6.0 miESE (120°)11.2 mph
5:00 PM105.8 °F28.4 °F7 %29.68 in6.2 miESE (110°)11.2 mphClear
5:30 PM105.8 °F30.2 °F7 %29.68 in6.2 miESE (120°)11.2 mphClear
6:00 PM104.0 °F32.0 °F8 %29.68 in6.2 miESE (110°)11.2 mphClear
6:30 PM104.0 °F32.0 °F8 %29.68 in6.2 miESE (110°)13.4 mphClear
7:00 PM102.2 °F33.8 °F9 %29.68 in6.2 miESE (110°)13.4 mphClear
8:00 PM99.0 °F39.0 °F6 %29.68 in6.0 miESE (120°)8.9 mph
8:00 PM96.8 °F35.6 °F12 %29.68 in6.2 miESE (120°)8.9 mphClear
9:00 PM93.2 °F33.8 °F12 %29.68 in6.2 miSE (140°)6.7 mphClear
10:00 PM91.4 °F35.6 °F14 %29.71 in3.7 miSouth (180°)6.7 mphClear
11:00 PM90.0 °F42.0 °F11 %29.70 in6.0 miSSE (160°)8.9 mph
11:00 PM89.6 °F33.8 °F14 %29.71 in6.2 miSSE (160°)6.7 mphClear
Hourly data recorded from UTAA, located miles away from Annau, Turkmenistan







STORIES FROM OUR PARTNERS